TimeCDT,TemperatureF,Dew PointF,Humidity,Sea Level PressureIn,VisibilityMPH,Wind Direction,Wind SpeedMPH,Gust SpeedMPH,PrecipitationIn,Events,Conditions,WindDirDegrees,DateUTC
12:15 AM,42.6,37.6,82,30.11,10.0,North,6.9,-,N/A,,Scattered Clouds,360,2012-10-28 05:15:00
12:35 AM,41.9,37.6,85,30.11,10.0,North,8.1,-,N/A,,Scattered Clouds,360,2012-10-28 05:35:00
12:55 AM,42.1,37.8,85,30.11,10.0,North,9.2,-,N/A,,Clear,10,2012-10-28 05:55:00
1:15 AM,42.4,38.1,85,30.10,10.0,NNE,9.2,-,N/A,,Clear,20,2012-10-28 06:15:00
1:35 AM,41.9,37.8,85,30.11,10.0,North,8.1,-,N/A,,Clear,10,2012-10-28 06:35:00
1:55 AM,41.4,37.6,86,30.11,10.0,North,9.2,-,N/A,,Clear,10,2012-10-28 06:55:00
2:15 AM,41.9,37.6,85,30.11,10.0,North,9.2,-,N/A,,Clear,360,2012-10-28 07:15:00
2:35 AM,41.5,37.6,86,30.11,10.0,North,9.2,-,N/A,,Clear,360,2012-10-28 07:35:00
2:55 AM,41.9,37.8,85,30.11,10.0,North,10.4,-,N/A,,Scattered Clouds,360,2012-10-28 07:55:00
3:15 AM,41.5,37.9,87,30.11,10.0,North,10.4,-,N/A,,Scattered Clouds,10,2012-10-28 08:15:00
3:35 AM,41.4,38.1,88,30.11,10.0,North,10.4,-,N/A,,Clear,360,2012-10-28 08:35:00
3:55 AM,41.4,37.9,88,30.10,10.0,North,10.4,-,N/A,,Clear,360,2012-10-28 08:55:00
4:15 AM,41.0,37.8,88,30.09,10.0,North,9.2,-,N/A,,Clear,10,2012-10-28 09:15:00
4:35 AM,40.3,37.8,91,30.10,10.0,North,8.1,-,N/A,,Clear,10,2012-10-28 09:35:00
4:55 AM,39.9,37.4,91,30.10,10.0,North,6.9,-,N/A,,Clear,10,2012-10-28 09:55:00
5:15 AM,40.1,37.4,90,30.11,10.0,NNE,6.9,-,N/A,,Clear,20,2012-10-28 10:15:00
5:35 AM,40.3,37.8,91,30.11,10.0,North,8.1,-,N/A,,Clear,10,2012-10-28 10:35:00
5:55 AM,40.1,37.8,91,30.11,10.0,North,8.1,-,N/A,,Clear,10,2012-10-28 10:55:00
6:15 AM,40.5,37.8,90,30.11,10.0,North,8.1,-,N/A,,Clear,10,2012-10-28 11:15:00
6:35 AM,39.9,37.6,91,30.11,10.0,North,6.9,-,N/A,,Clear,10,2012-10-28 11:35:00
6:55 AM,39.6,37.4,92,30.11,10.0,North,8.1,-,N/A,,Clear,360,2012-10-28 11:55:00
7:15 AM,39.4,37.4,93,30.12,10.0,North,4.6,-,N/A,,Clear,10,2012-10-28 12:15:00
7:35 AM,40.1,37.8,91,30.12,10.0,North,10.4,16.1,N/A,,Clear,350,2012-10-28 12:35:00
7:55 AM,40.6,38.3,91,30.13,10.0,North,8.1,-,N/A,,Clear,350,2012-10-28 12:55:00
8:15 AM,42.3,39.2,89,30.13,10.0,North,11.5,-,N/A,,Clear,350,2012-10-28 13:15:00
8:35 AM,43.5,39.9,87,30.13,10.0,North,15.0,-,N/A,,Clear,10,2012-10-28 13:35:00
8:55 AM,44.6,40.3,85,30.13,10.0,North,9.2,-,N/A,,Clear,10,2012-10-28 13:55:00
9:15 AM,45.7,40.1,81,30.13,10.0,North,13.8,-,N/A,,Clear,360,2012-10-28 14:15:00
9:35 AM,46.8,40.3,78,30.13,10.0,North,13.8,-,N/A,,Clear,350,2012-10-28 14:35:00
9:55 AM,48.0,40.3,75,30.13,10.0,NNE,15.0,19.6,N/A,,Clear,30,2012-10-28 14:55:00
10:15 AM,48.7,38.7,68,30.13,10.0,NNE,12.7,-,N/A,,Clear,30,2012-10-28 15:15:00
10:35 AM,49.8,39.0,66,30.13,10.0,North,18.4,-,N/A,,Clear,10,2012-10-28 15:35:00
10:55 AM,50.7,39.2,65,30.13,10.0,North,17.3,23.0,N/A,,Clear,10,2012-10-28 15:55:00
11:15 AM,51.4,38.5,61,30.13,10.0,NNE,13.8,24.2,N/A,,Clear,30,2012-10-28 16:15:00
11:35 AM,52.0,39.0,61,30.13,10.0,North,16.1,23.0,N/A,,Scattered Clouds,10,2012-10-28 16:35:00
11:55 AM,52.7,39.4,61,30.12,10.0,North,17.3,24.2,N/A,,Scattered Clouds,10,2012-10-28 16:55:00
12:15 PM,52.5,39.0,60,30.12,10.0,NNE,16.1,21.9,N/A,,Mostly Cloudy,20,2012-10-28 17:15:00
12:35 PM,53.2,39.7,60,30.12,10.0,North,12.7,19.6,N/A,,Mostly Cloudy,10,2012-10-28 17:35:00
12:55 PM,54.5,39.6,57,30.11,10.0,North,16.1,24.2,N/A,,Mostly Cloudy,350,2012-10-28 17:55:00
1:15 PM,54.5,39.4,57,30.10,10.0,NNW,15.0,21.9,N/A,,Scattered Clouds,340,2012-10-28 18:15:00
1:35 PM,54.9,39.4,56,30.10,10.0,North,13.8,18.4,N/A,,Scattered Clouds,350,2012-10-28 18:35:00
1:55 PM,54.9,38.1,53,30.09,10.0,NNW,9.2,20.7,N/A,,Scattered Clouds,340,2012-10-28 18:55:00
2:15 PM,55.6,38.7,53,30.09,10.0,North,16.1,21.9,N/A,,Clear,10,2012-10-28 19:15:00
2:35 PM,55.2,36.9,50,30.09,10.0,North,19.6,24.2,N/A,,Scattered Clouds,360,2012-10-28 19:35:00
2:55 PM,56.1,37.8,50,30.09,10.0,NNW,16.1,19.6,N/A,,Scattered Clouds,340,2012-10-28 19:55:00
3:15 PM,55.8,37.4,50,30.09,10.0,North,16.1,24.2,N/A,,Clear,360,2012-10-28 20:15:00
3:35 PM,55.4,36.7,49,30.10,10.0,North,19.6,-,N/A,,Scattered Clouds,360,2012-10-28 20:35:00
3:55 PM,55.0,38.1,53,30.10,10.0,North,12.7,19.6,N/A,,Scattered Clouds,350,2012-10-28 20:55:00
4:15 PM,54.5,37.8,53,30.10,10.0,North,13.8,24.2,N/A,,Scattered Clouds,360,2012-10-28 21:15:00
4:35 PM,54.0,36.0,51,30.10,10.0,North,18.4,24.2,N/A,,Clear,350,2012-10-28 21:35:00
4:55 PM,53.2,34.9,50,30.10,10.0,North,20.7,-,N/A,,Clear,360,2012-10-28 21:55:00
5:15 PM,52.7,35.1,51,30.11,10.0,North,13.8,21.9,N/A,,Clear,350,2012-10-28 22:15:00
5:35 PM,51.4,35.6,55,30.11,10.0,North,12.7,-,N/A,,Clear,350,2012-10-28 22:35:00
5:55 PM,50.0,35.2,57,30.11,10.0,North,10.4,-,N/A,,Clear,350,2012-10-28 22:55:00
6:15 PM,48.7,35.6,60,30.12,10.0,North,9.2,-,N/A,,Clear,350,2012-10-28 23:15:00
6:35 PM,48.7,35.4,60,30.12,10.0,NNW,10.4,17.3,N/A,,Clear,340,2012-10-28 23:35:00
6:55 PM,47.8,35.4,62,30.13,10.0,NNW,9.2,-,N/A,,Clear,330,2012-10-28 23:55:00
7:15 PM,48.0,35.2,61,30.14,10.0,North,17.3,24.2,N/A,,Clear,350,2012-10-29 00:15:00
7:35 PM,47.3,35.2,63,30.14,10.0,NNW,11.5,-,N/A,,Clear,340,2012-10-29 00:35:00
7:55 PM,46.2,35.1,65,30.14,10.0,North,13.8,-,N/A,,Clear,350,2012-10-29 00:55:00
8:15 PM,45.9,34.5,65,30.14,10.0,NNW,13.8,23.0,N/A,,Clear,340,2012-10-29 01:15:00
8:35 PM,45.3,34.2,65,30.14,10.0,North,13.8,-,N/A,,Clear,350,2012-10-29 01:35:00
8:55 PM,44.8,34.2,66,30.14,10.0,NNW,11.5,-,N/A,,Clear,340,2012-10-29 01:55:00
9:15 PM,44.1,34.0,68,30.14,10.0,NNW,10.4,16.1,N/A,,Clear,340,2012-10-29 02:15:00
9:35 PM,43.3,33.8,69,30.14,10.0,NNW,9.2,-,N/A,,Clear,340,2012-10-29 02:35:00
9:55 PM,43.3,33.8,69,30.15,10.0,NNW,10.4,-,N/A,,Clear,340,2012-10-29 02:55:00
10:15 PM,42.8,33.8,70,30.15,10.0,NNW,8.1,-,N/A,,Clear,340,2012-10-29 03:15:00
10:35 PM,41.9,33.8,73,30.15,10.0,NNW,6.9,-,N/A,,Clear,330,2012-10-29 03:35:00
10:55 PM,41.4,33.8,74,30.14,10.0,NNW,8.1,-,N/A,,Clear,330,2012-10-29 03:55:00
11:15 PM,41.0,34.0,76,30.14,10.0,NNW,6.9,-,N/A,,Clear,340,2012-10-29 04:15:00
11:35 PM,41.0,34.0,76,30.14,10.0,NNW,8.1,-,N/A,,Clear,340,2012-10-29 04:35:00
11:55 PM,41.0,34.0,76,30.15,10.0,NNW,9.2,-,N/A,,Clear,340,2012-10-29 04:55:00